Location: Palomar Mountain Lodge
(33.3110°N, 116.8495°W)
Time: 07:46:11
(UTC-07:00)

Cosmos 1437 - Pass Details

Date: 19 May 2017
Orbit: 405 x 413 km, 81.2° (Epoch: 22 September)

Event Time Altitude Azimuth Distance (km) Brightness Sun altitude
Exits shadow 21:34:46 68° 237° (WSW) 441 2.8 -20.2°
Maximum altitude 21:35:01 73° 278° (W) 428 2.8 -20.2°
Drops below altitude 10° 21:38:12 10° 4° (N) 1,472 6.0 -20.7°
Sets 21:40:15 0° 6° (N) 2,339 7.1 -21.0°
